Location: York
(31.8935°S, 116.7682°E)
Time: 22:58:03
(UTC+08:00)

Envisat - Visible Passes

Search period start: 04 December 2021 00:00
Search period end: 14 December 2021 00:00
Orbit: 764 x 766 km, 98.2° (Epoch: 04 December)

Date Brightness Start Highest point End Pass type
(mag) Time Alt. Az. Time Alt. Az. Time Alt. Az.
04 Dec 4.6 03:55:13 10° NE 03:59:55 39° ESE 04:04:40 10° S visible
05 Dec 5.9 03:20:12 10° ENE 03:23:24 17° ESE 03:26:36 10° SSE visible
06 Dec 3.4 04:20:03 10° NNE 04:25:06 73° ESE 04:30:15 10° S visible
07 Dec 5.1 03:44:02 10° NE 03:48:27 30° ESE 03:52:53 10° S visible
08 Dec 6.1 03:09:44 10° E 03:11:59 13° ESE 03:14:13 10° SE visible
09 Dec 3.9 04:08:38 10° NNE 04:13:36 55° ESE 04:18:37 10° S visible
10 Dec 5.5 03:33:00 10° ENE 03:36:59 23° ESE 03:41:00 10° SSE visible
12 Dec 4.4 03:57:19 10° NE 04:02:05 42° ESE 04:06:55 10° S visible
13 Dec 5.8 03:22:08 10° ENE 03:25:33 18° ESE 03:28:58 10° SSE visible
